Weather History for Fort Campbell, KY

Change the Weather History Date:

Monday, January 21, 2013

  Actual Average Record
Temperature  
Mean Temperature 28 °F -  
Max Temperature 35 °F 43 °F 71 °F (1999)
Min Temperature 21 °F 25 °F 8 °F (2011)
Degree Days  
Heating Degree Days 37    
Moisture  
Dew Point 14 °F    
Average Humidity 58    
Maximum Humidity 78    
Minimum Humidity 36    
Precipitation  
Precipitation 0.00 in - - ()
Sea Level Pressure  
Sea Level Pressure 30.29 in    
Wind  
Wind Speed 6 mph (NW)    
Max Wind Speed 13 mph    
Max Gust Speed 21 mph    
Visibility 10 miles    
Events      
Averages and records for this station are not official NWS values.
T = Trace of Precipitation, MM = Missing Value Source: NWS Daily Summary

Daily Weather History Graph

Daily Weather History Graph

Search for Another Location

Airport:

Trip Planner

Search our weather history database for the weather conditions in past years. The results will help you decide how hot, cold, wet, or windy it might be!

Date:

Astronomy

Jan. 21, 2013 Rise Set
Actual Time 6:58 AM CST 5:04 PM CST
Civil Twilight 6:31 AM CST 5:32 PM CST
Nautical Twilight 5:59 AM CST 6:03 PM CST
Astronomical Twilight 5:28 AM CST 6:34 PM CST
Moon 12:44 PM CST (1/21) 2:26 AM CST (1/21)
Length of Visible Light 11h 00m
Length of Day
10h 05m
Waxing Gibbous, 75% of the Moon is Illuminated
Jan 21
Waxing Gibbous
Jan 26
Full
Feb 3
Last Quarter
Feb 10
New
Feb 17
First Quarter

Hourly Weather History & Observations

Time (CST) Temp. Windchill Dew Point Humidity Pressure Visibility Wind Dir Wind Speed Gust Speed Precip Events Conditions
12:55 AM 27.3 °F - 18.9 °F 70% 30.22 in 10.0 mi Calm Calm - N/A   Mostly Cloudy
1:55 AM 27.0 °F - 19.8 °F 74% 30.23 in 10.0 mi Calm Calm - N/A   Clear
2:55 AM 26.4 °F 19.8 °F 18.7 °F 73% 30.23 in 10.0 mi NW 5.8 mph - N/A   Clear
3:55 AM 25.7 °F 19.0 °F 17.6 °F 71% 30.25 in 10.0 mi NW 5.8 mph - N/A   Partly Cloudy
4:55 AM 25.7 °F 19.0 °F 19.0 °F 76% 30.25 in 10.0 mi NNW 5.8 mph - N/A   Scattered Clouds
5:55 AM 25.5 °F 19.9 °F 19.4 °F 78% 30.26 in 10.0 mi NW 4.6 mph - N/A   Clear
6:55 AM 25.3 °F 16.7 °F 18.9 °F 76% 30.29 in 10.0 mi NW 8.1 mph - N/A   Clear
7:55 AM 26.1 °F 15.6 °F 17.4 °F 70% 30.32 in 10.0 mi NW 11.5 mph - N/A   Clear
8:55 AM 27.3 °F 17.7 °F 16.3 °F 63% 30.33 in 10.0 mi NW 10.4 mph - N/A   Clear
9:55 AM 28.6 °F 18.2 °F 16.9 °F 62% 30.35 in 10.0 mi WNW 12.7 mph - N/A   Clear
10:55 AM 29.8 °F 20.9 °F 15.6 °F 56% 30.34 in 10.0 mi WNW 10.4 mph - N/A   Clear
11:55 AM 31.8 °F 23.9 °F 12.4 °F 45% 30.30 in 10.0 mi West 9.2 mph 17.3 mph N/A   Clear
12:55 PM 33.8 °F 26.4 °F 12.6 °F 42% 30.28 in 10.0 mi NNW 9.2 mph - N/A   Clear
1:55 PM 35.1 °F 26.4 °F 12.4 °F 39% 30.27 in 10.0 mi WNW 12.7 mph - N/A   Clear
2:55 PM 34.9 °F 26.2 °F 10.8 °F 37% 30.27 in 10.0 mi NW 12.7 mph 20.7 mph N/A   Clear
3:55 PM 33.8 °F 24.8 °F 9.0 °F 36% 30.27 in 10.0 mi NW 12.7 mph - N/A   Clear
4:55 PM 31.6 °F 24.4 °F 8.8 °F 38% 30.29 in 10.0 mi NW 8.1 mph - N/A   Clear
5:55 PM 29.3 °F 20.8 °F 7.0 °F 39% 30.31 in 10.0 mi NW 9.2 mph - N/A   Clear
6:55 PM 27.7 °F 22.4 °F 8.6 °F 45% 30.32 in 10.0 mi NNW 4.6 mph - N/A   Clear
7:55 PM 23.0 °F 17.0 °F 13.5 °F 67% 30.32 in 10.0 mi North 4.6 mph - N/A   Clear
8:55 PM 21.7 °F 13.2 °F 12.4 °F 67% 30.34 in 10.0 mi North 6.9 mph - N/A   Clear
9:55 PM 22.3 °F - 11.1 °F 62% 30.34 in 10.0 mi Calm Calm - N/A   Mostly Cloudy
10:55 PM 23.2 °F 18.7 °F 8.6 °F 54% 30.35 in 10.0 mi North 3.5 mph - N/A   Mostly Cloudy
11:55 PM 23.2 °F 14.1 °F 7.7 °F 52% 30.34 in 10.0 mi NNW 8.1 mph - N/A   Overcast